QPF
0.06 0.06 0.07 0.07 0.08 0.07 0.06 0.08 0.06 0.06 0.06 0.06 0.05 0.05 0.06 0.04 0.06 0.05 0.05 0.06 0.07 0.08 0.08 0.10 0.11 0.11 0.09 0.07 0.07 0.06 0.05 0.05 0.05 0.04 0.04 0.03 0.02 0.02 0.02 0.02 0.03 0.02 0.02
0.06 0.07 0.07 0.10 0.11 0.09 0.06 0.06 0.06 0.07 0.07 0.07 0.05 0.05 0.07 0.06 0.06 0.05 0.05 0.05 0.05 0.05 0.06 0.09 0.10 0.12 0.11 0.09 0.07 0.07 0.06 0.05 0.07 0.05 0.05 0.04 0.03 0.03 0.03 0.03 0.03 0.03 0.02
0.08 0.09 0.10 0.13 0.12 0.10 0.08 0.07 0.07 0.07 0.06 0.06 0.07 0.06 0.05 0.05 0.04 0.05 0.04 0.05 0.05 0.05 0.05 0.06 0.07 0.09 0.10 0.09 0.07 0.09 0.08 0.06 0.06 0.05 0.04 0.04 0.03 0.03 0.02 0.04 0.03 0.03 0.02
0.11 0.13 0.15 0.13 0.11 0.09 0.07 0.07 0.08 0.07 0.07 0.07 0.09 0.09 0.06 0.06 0.05 0.04 0.05 0.06 0.06 0.05 0.06 0.06 0.07 0.07 0.08 0.10 0.10 0.13 0.13 0.09 0.07 0.05 0.04 0.03 0.03 0.03 0.04 0.06 0.06 0.05 0.03
0.12 0.14 0.16 0.14 0.11 0.09 0.07 0.05 0.05 0.06 0.06 0.06 0.07 0.08 0.05 0.06 0.06 0.04 0.05 0.06 0.06 0.07 0.07 0.07 0.06 0.07 0.09 0.10 0.09 0.10 0.11 0.09 0.07 0.07 0.06 0.05 0.04 0.04 0.05 0.06 0.07 0.06 0.04
0.12 0.11 0.12 0.12 0.11 0.10 0.09 0.07 0.07 0.07 0.08 0.07 0.03 0.04 0.03 0.03 0.04 0.04 0.05 0.06 0.07 0.06 0.06 0.06 0.06 0.05 0.05 0.07 0.08 0.09 0.10 0.11 0.09 0.08 0.08 0.08 0.06 0.05 0.05 0.05 0.07 0.07 0.06
0.10 0.10 0.11 0.12 0.10 0.10 0.09 0.07 0.07 0.09 0.09 0.07 0.07 0.06 0.04 0.03 0.04 0.04 0.04 0.07 0.07 0.06 0.05 0.05 0.05 0.06 0.05 0.04 0.05 0.07 0.09 0.10 0.11 0.10 0.09 0.09 0.08 0.08 0.07 0.07 0.07 0.08 0.08
0.09 0.10 0.14 0.15 0.10 0.09 0.08 0.07 0.08 0.08 0.08 0.07 0.07 0.08 0.06 0.06 0.05 0.03 0.03 0.05 0.05 0.05 0.04 0.04 0.06 0.06 0.05 0.06 0.04 0.04 0.06 0.08 0.11 0.12 0.12 0.10 0.08 0.07 0.07 0.09 0.08 0.08 0.09
0.08 0.09 0.09 0.08 0.09 0.07 0.07 0.08 0.08 0.10 0.09 0.07 0.06 0.07 0.08 0.09 0.07 0.04 0.03 0.04 0.05 0.06 0.06 0.05 0.04 0.05 0.04 0.05 0.05 0.04 0.05 0.06 0.08 0.10 0.12 0.12 0.11 0.09 0.07 0.08 0.10 0.11 0.10
0.05 0.06 0.06 0.06 0.07 0.05 0.06 0.06 0.06 0.08 0.09 0.09 0.08 0.07 0.07 0.07 0.07 0.06 0.06 0.06 0.06 0.05 0.06 0.06 0.06 0.05 0.04 0.04 0.05 0.04 0.03 0.04 0.07 0.09 0.11 0.10 0.10 0.10 0.11 0.13 0.13 0.14 0.14
0.06 0.06 0.06 0.06 0.05 0.05 0.05 0.07 0.08 0.07 0.07 0.08 0.09 0.07 0.08 0.08 0.08 0.09 0.10 0.11 0.08 0.06 0.05 0.06 0.07 0.06 0.07 0.07 0.08 0.07 0.06 0.05 0.05 0.06 0.06 0.07 0.08 0.09 0.09 0.09 0.11 0.13 0.13
0.04 0.04 0.05 0.05 0.05 0.05 0.06 0.07 0.07 0.07 0.07 0.08 0.09 0.07 0.09 0.10 0.11 0.11 0.10 0.10 0.08 0.06 0.06 0.07 0.10 0.09 0.08 0.07 0.06 0.07 0.07 0.07 0.06 0.04 0.03 0.03 0.05 0.06 0.07 0.09 0.09 0.10 0.11
0.04 0.03 0.03 0.03 0.04 0.04 0.05 0.06 0.06 0.06 0.08 0.10 0.10 0.09 0.09 0.09 0.10 0.11 0.10 0.08 0.09 0.09 0.10 0.10 0.08 0.06 0.04 0.05 0.06 0.05 0.05 0.07 0.07 0.06 0.05 0.04 0.04 0.06 0.06 0.06 0.09 0.11 0.13
0.03 0.03 0.03 0.03 0.03 0.03 0.03 0.05 0.05 0.06 0.08 0.09 0.07 0.09 0.09 0.09 0.09 0.09 0.10 0.11 0.11 0.11 0.12 0.11 0.07 0.05 0.04 0.05 0.06 0.05 0.05 0.07 0.08 0.09 0.08 0.08 0.07 0.07 0.07 0.07 0.07 0.08 0.09
0.02 0.02 0.02 0.03 0.02 0.02 0.03 0.05 0.05 0.05 0.06 0.06 0.07 0.09 0.10 0.11 0.11 0.08 0.09 0.10 0.12 0.11 0.12 0.11 0.08 0.07 0.06 0.06 0.07 0.06 0.07 0.08 0.08 0.08 0.09 0.09 0.08 0.07 0.07 0.08 0.09 0.09 0.07
0.02 0.02 0.02 0.02 0.03 0.03 0.03 0.04 0.04 0.05 0.06 0.07 0.06 0.06 0.09 0.11 0.12 0.11 0.09 0.10 0.11 0.11 0.12 0.12 0.12 0.11 0.11 0.11 0.10 0.07 0.06 0.06 0.06 0.08 0.11 0.12 0.11 0.08 0.08 0.08 0.10 0.09 0.08
0.02 0.02 0.03 0.03 0.03 0.03 0.03 0.03 0.03 0.03 0.04 0.06 0.06 0.07 0.08 0.09 0.11 0.13 0.13 0.12 0.13 0.14 0.16 0.16 0.15 0.16 0.17 0.15 0.11 0.08 0.05 0.04 0.04 0.05 0.06 0.08 0.09 0.08 0.08 0.08 0.07 0.07 0.07
0.02 0.01 0.02 0.03 0.03 0.03 0.03 0.03 0.04 0.04 0.04 0.05 0.05 0.06 0.06 0.06 0.07 0.07 0.09 0.11 0.14 0.17 0.16 0.15 0.14 0.11 0.12 0.11 0.09 0.07 0.04 0.03 0.03 0.05 0.05 0.05 0.05 0.04 0.05 0.05 0.04 0.04 0.04
0.02 0.02 0.02 0.03 0.04 0.04 0.05 0.05 0.04 0.04 0.04 0.04 0.04 0.05 0.05 0.05 0.06 0.06 0.06 0.08 0.11 0.11 0.10 0.10 0.11 0.12 0.10 0.08 0.07 0.06 0.05 0.05 0.03 0.03 0.03 0.03 0.03 0.03 0.03 0.03 0.03 0.03 0.03
0.03 0.03 0.03 0.03 0.04 0.04 0.04 0.03 0.04 0.04 0.04 0.03 0.03 0.03 0.03 0.05 0.04 0.05 0.04 0.06 0.08 0.07 0.08 0.08 0.08 0.07 0.05 0.05 0.05 0.06 0.07 0.06 0.05 0.03 0.03 0.02 0.02 0.01 0.02 0.02 0.02 0.02 0.02
0.01 0.02 0.02 0.03 0.03 0.03 0.02 0.02 0.03 0.03 0.03 0.03 0.02 0.01 0.02 0.03 0.03 0.03 0.04 0.06 0.07 0.07 0.07 0.06 0.04 0.03 0.03 0.04 0.04 0.05 0.05 0.06 0.05 0.02 0.01 0.01 0.01 0.01 0.01 0.01 0.01 0.01 0.00
0.02 0.02 0.02 0.03 0.02 0.02 0.03 0.03 0.03 0.03 0.03 0.02 0.02 0.01 0.02 0.02 0.02 0.02 0.02 0.03 0.05 0.06 0.05 0.04 0.03 0.04 0.04 0.05 0.04 0.04 0.05 0.06 0.05 0.03 0.02 0.01 0.00 0.00 0.00 0.00 0.00 0.00 0.00
0.02 0.02 0.02 0.02 0.01 0.02 0.03 0.03 0.03 0.02 0.03 0.03 0.02 0.02 0.02 0.01 0.01 0.01 0.02 0.02 0.03 0.04 0.05 0.05 0.05 0.05 0.06 0.06 0.05 0.05 0.06 0.06 0.05 0.03 0.02 0.01 0.01 0.01 0.00 0.00 0.00 0.00 0.00
0.03 0.03 0.02 0.01 0.01 0.02 0.03 0.02 0.02 0.01 0.01 0.02 0.02 0.02 0.02 0.02 0.01 0.02 0.02 0.02 0.02 0.01 0.01 0.01 0.02 0.03 0.04 0.03 0.03 0.04 0.04 0.04 0.03 0.02 0.01 0.01 0.01 0.01 0.01 0.01 0.00 0.00 0.00
0.02 0.02 0.02 0.01 0.01 0.02 0.02 0.01 0.01 0.01 0.01 0.01 0.01 0.01 0.01 0.01 0.01 0.01 0.02 0.02 0.02 0.01 0.01 0.01 0.02 0.03 0.03 0.03 0.03 0.03 0.04 0.04 0.03 0.02 0.01 0.01 0.01 0.01 0.01 0.02 0.01 0.00 0.00
0.02 0.02 0.01 0.01 0.01 0.02 0.01 0.01 0.01 0.01 0.01 0.01 0.01 0.01 0.01 0.01 0.01 0.01 0.01 0.01 0.02 0.02 0.02 0.02 0.02 0.03 0.02 0.02 0.02 0.02 0.03 0.03 0.03 0.02 0.02 0.01 0.01 0.02 0.02 0.02 0.02 0.01 0.01
MSLP
1014.49 1014.58 1014.59 1014.52 1014.40 1014.26 1014.13 1014.02 1013.95 1013.92 1013.94 1013.98 1014.06 1014.18 1014.37 1014.64 1015.00 1015.46 1016.00 1016.58 1017.16 1017.69 1018.14 1018.48 1018.73 1018.89 1019.01 1019.13 1019.26 1019.43 1019.63 1019.85 1020.07 1020.26 1020.43 1020.55 1020.64 1020.72 1020.79 1020.88 1020.97 1021.07 1021.17
1014.57 1014.65 1014.66 1014.59 1014.47 1014.33 1014.21 1014.12 1014.07 1014.08 1014.12 1014.19 1014.29 1014.41 1014.57 1014.78 1015.07 1015.45 1015.89 1016.38 1016.89 1017.38 1017.83 1018.20 1018.50 1018.73 1018.92 1019.10 1019.27 1019.46 1019.67 1019.88 1020.08 1020.27 1020.42 1020.54 1020.63 1020.71 1020.79 1020.87 1020.96 1021.04 1021.11
1014.59 1014.68 1014.69 1014.63 1014.54 1014.42 1014.33 1014.27 1014.25 1014.28 1014.35 1014.43 1014.52 1014.62 1014.73 1014.88 1015.08 1015.34 1015.68 1016.07 1016.50 1016.94 1017.36 1017.75 1018.10 1018.39 1018.65 1018.89 1019.11 1019.34 1019.56 1019.77 1019.97 1020.14 1020.29 1020.41 1020.50 1020.59 1020.68 1020.77 1020.86 1020.94 1021.00
1014.57 1014.66 1014.69 1014.67 1014.60 1014.53 1014.47 1014.44 1014.46 1014.51 1014.58 1014.65 1014.73 1014.79 1014.85 1014.93 1015.04 1015.21 1015.44 1015.73 1016.08 1016.47 1016.86 1017.26 1017.62 1017.96 1018.27 1018.56 1018.83 1019.08 1019.31 1019.53 1019.72 1019.89 1020.03 1020.15 1020.25 1020.35 1020.46 1020.56 1020.67 1020.76 1020.83
1014.52 1014.62 1014.67 1014.69 1014.67 1014.65 1014.63 1014.63 1014.66 1014.71 1014.78 1014.84 1014.88 1014.91 1014.93 1014.96 1015.01 1015.11 1015.27 1015.49 1015.78 1016.11 1016.47 1016.84 1017.21 1017.56 1017.89 1018.19 1018.48 1018.73 1018.97 1019.18 1019.36 1019.52 1019.65 1019.77 1019.88 1020.00 1020.12 1020.25 1020.38 1020.51 1020.61
1014.45 1014.55 1014.63 1014.69 1014.73 1014.76 1014.78 1014.81 1014.85 1014.89 1014.93 1014.97 1014.99 1014.99 1014.99 1015.00 1015.03 1015.11 1015.24 1015.43 1015.68 1015.97 1016.29 1016.63 1016.96 1017.29 1017.59 1017.88 1018.14 1018.38 1018.59 1018.78 1018.94 1019.08 1019.20 1019.32 1019.44 1019.57 1019.71 1019.87 1020.04 1020.20 1020.34
1014.35 1014.46 1014.57 1014.67 1014.77 1014.84 1014.91 1014.96 1015.00 1015.03 1015.05 1015.05 1015.05 1015.05 1015.05 1015.08 1015.13 1015.23 1015.38 1015.57 1015.81 1016.08 1016.36 1016.65 1016.93 1017.19 1017.44 1017.67 1017.88 1018.07 1018.24 1018.39 1018.52 1018.64 1018.75 1018.86 1018.98 1019.12 1019.28 1019.47 1019.67 1019.87 1020.06
1014.23 1014.34 1014.47 1014.62 1014.76 1014.88 1014.98 1015.05 1015.09 1015.10 1015.09 1015.08 1015.07 1015.07 1015.10 1015.17 1015.28 1015.44 1015.64 1015.87 1016.12 1016.38 1016.64 1016.87 1017.08 1017.28 1017.44 1017.60 1017.73 1017.86 1017.98 1018.09 1018.19 1018.28 1018.38 1018.48 1018.59 1018.74 1018.91 1019.11 1019.35 1019.59 1019.82
1014.08 1014.18 1014.33 1014.50 1014.68 1014.84 1014.97 1015.05 1015.08 1015.08 1015.05 1015.02 1015.00 1015.02 1015.09 1015.21 1015.39 1015.63 1015.91 1016.20 1016.49 1016.77 1017.00 1017.20 1017.35 1017.47 1017.57 1017.64 1017.72 1017.79 1017.86 1017.93 1018.01 1018.09 1018.17 1018.26 1018.37 1018.51 1018.69 1018.90 1019.15 1019.42 1019.69
1013.89 1013.97 1014.11 1014.30 1014.50 1014.69 1014.83 1014.92 1014.95 1014.94 1014.89 1014.84 1014.82 1014.85 1014.95 1015.13 1015.39 1015.71 1016.06 1016.43 1016.77 1017.08 1017.32 1017.50 1017.62 1017.69 1017.74 1017.77 1017.80 1017.84 1017.89 1017.96 1018.03 1018.10 1018.19 1018.28 1018.39 1018.53 1018.70 1018.91 1019.16 1019.44 1019.73
1013.64 1013.69 1013.82 1014.01 1014.21 1014.41 1014.56 1014.65 1014.68 1014.64 1014.58 1014.51 1014.48 1014.51 1014.64 1014.86 1015.18 1015.57 1016.00 1016.43 1016.84 1017.19 1017.46 1017.66 1017.78 1017.86 1017.90 1017.93 1017.96 1018.01 1018.08 1018.16 1018.26 1018.36 1018.46 1018.56 1018.68 1018.81 1018.97 1019.17 1019.40 1019.67 1019.95
1013.35 1013.36 1013.46 1013.62 1013.81 1014.00 1014.15 1014.23 1014.25 1014.20 1014.11 1014.03 1013.98 1014.02 1014.15 1014.39 1014.74 1015.18 1015.67 1016.16 1016.63 1017.04 1017.37 1017.62 1017.80 1017.92 1018.00 1018.08 1018.16 1018.27 1018.39 1018.53 1018.68 1018.82 1018.96 1019.09 1019.22 1019.35 1019.50 1019.68 1019.88 1020.12 1020.37
1013.01 1013.00 1013.06 1013.18 1013.34 1013.50 1013.63 1013.70 1013.70 1013.64 1013.53 1013.44 1013.38 1013.40 1013.53 1013.77 1014.14 1014.60 1015.13 1015.67 1016.20 1016.67 1017.08 1017.41 1017.67 1017.88 1018.05 1018.22 1018.39 1018.58 1018.79 1019.01 1019.23 1019.44 1019.63 1019.80 1019.95 1020.09 1020.23 1020.38 1020.54 1020.74 1020.94
1012.68 1012.63 1012.65 1012.73 1012.85 1012.97 1013.07 1013.11 1013.10 1013.02 1012.92 1012.81 1012.74 1012.75 1012.87 1013.11 1013.47 1013.95 1014.49 1015.07 1015.65 1016.20 1016.68 1017.11 1017.47 1017.79 1018.08 1018.35 1018.64 1018.93 1019.23 1019.54 1019.84 1020.11 1020.36 1020.57 1020.75 1020.90 1021.03 1021.16 1021.29 1021.43 1021.58
1012.38 1012.32 1012.31 1012.34 1012.41 1012.49 1012.55 1012.57 1012.54 1012.46 1012.36 1012.25 1012.18 1012.19 1012.31 1012.54 1012.90 1013.37 1013.93 1014.53 1015.15 1015.75 1016.32 1016.83 1017.30 1017.72 1018.12 1018.50 1018.88 1019.27 1019.65 1020.04 1020.40 1020.73 1021.03 1021.28 1021.49 1021.66 1021.79 1021.90 1022.01 1022.10 1022.19
1012.17 1012.11 1012.08 1012.09 1012.11 1012.15 1012.17 1012.17 1012.13 1012.05 1011.95 1011.87 1011.82 1011.84 1011.96 1012.20 1012.55 1013.02 1013.58 1014.20 1014.84 1015.49 1016.10 1016.69 1017.23 1017.73 1018.21 1018.66 1019.11 1019.56 1019.99 1020.42 1020.82 1021.20 1021.53 1021.81 1022.04 1022.23 1022.38 1022.49 1022.57 1022.63 1022.68
1012.08 1012.05 1012.03 1012.01 1012.00 1012.00 1012.00 1011.97 1011.93 1011.86 1011.79 1011.73 1011.72 1011.77 1011.92 1012.17 1012.53 1013.00 1013.56 1014.17 1014.82 1015.47 1016.11 1016.72 1017.30 1017.84 1018.35 1018.83 1019.30 1019.76 1020.20 1020.63 1021.04 1021.41 1021.75 1022.05 1022.31 1022.52 1022.68 1022.81 1022.90 1022.95 1022.98
1012.14 1012.16 1012.15 1012.13 1012.11 1012.08 1012.05 1012.01 1011.97 1011.92 1011.88 1011.87 1011.90 1012.00 1012.18 1012.46 1012.83 1013.30 1013.84 1014.44 1015.07 1015.70 1016.33 1016.93 1017.49 1018.02 1018.51 1018.97 1019.41 1019.83 1020.24 1020.63 1021.01 1021.36 1021.69 1021.99 1022.26 1022.49 1022.68 1022.84 1022.95 1023.03 1023.07
1012.33 1012.40 1012.43 1012.43 1012.40 1012.37 1012.32 1012.28 1012.23 1012.20 1012.20 1012.23 1012.31 1012.46 1012.68 1012.98 1013.37 1013.83 1014.36 1014.92 1015.51 1016.10 1016.68 1017.23 1017.74 1018.22 1018.65 1019.05 1019.42 1019.78 1020.11 1020.44 1020.76 1021.07 1021.37 1021.66 1021.93 1022.18 1022.41 1022.60 1022.76 1022.88 1022.95
1012.61 1012.75 1012.83 1012.85 1012.84 1012.80 1012.74 1012.69 1012.66 1012.64 1012.67 1012.74 1012.86 1013.05 1013.31 1013.64 1014.03 1014.48 1014.97 1015.49 1016.03 1016.55 1017.06 1017.53 1017.97 1018.36 1018.72 1019.04 1019.33 1019.60 1019.85 1020.10 1020.35 1020.61 1020.87 1021.14 1021.41 1021.68 1021.94 1022.17 1022.38 1022.55 1022.69
1012.94 1013.15 1013.27 1013.33 1013.33 1013.29 1013.24 1013.19 1013.15 1013.15 1013.19 1013.29 1013.45 1013.67 1013.96 1014.29 1014.68 1015.11 1015.56 1016.03 1016.49 1016.94 1017.37 1017.76 1018.11 1018.42 1018.70 1018.93 1019.15 1019.34 1019.52 1019.70 1019.89 1020.10 1020.32 1020.56 1020.82 1021.10 1021.37 1021.64 1021.90 1022.13 1022.32
1013.27 1013.53 1013.70 1013.79 1013.81 1013.79 1013.74 1013.68 1013.65 1013.65 1013.70 1013.82 1013.99 1014.23 1014.53 1014.87 1015.24 1015.64 1016.04 1016.45 1016.84 1017.21 1017.55 1017.87 1018.15 1018.39 1018.60 1018.78 1018.93 1019.07 1019.20 1019.33 1019.47 1019.63 1019.82 1020.03 1020.27 1020.54 1020.82 1021.11 1021.39 1021.66 1021.90
1013.56 1013.86 1014.06 1014.18 1014.23 1014.21 1014.17 1014.12 1014.08 1014.09 1014.15 1014.27 1014.46 1014.70 1014.99 1015.32 1015.67 1016.03 1016.38 1016.73 1017.05 1017.35 1017.63 1017.88 1018.10 1018.29 1018.47 1018.61 1018.74 1018.86 1018.96 1019.07 1019.18 1019.31 1019.47 1019.64 1019.85 1020.09 1020.35 1020.63 1020.91 1021.19 1021.45
1013.78 1014.10 1014.33 1014.48 1014.54 1014.55 1014.52 1014.48 1014.45 1014.46 1014.53 1014.66 1014.84 1015.08 1015.37 1015.67 1016.00 1016.32 1016.62 1016.91 1017.18 1017.42 1017.64 1017.85 1018.04 1018.21 1018.36 1018.51 1018.64 1018.75 1018.86 1018.96 1019.06 1019.17 1019.29 1019.43 1019.60 1019.79 1020.00 1020.24 1020.49 1020.75 1021.00
1013.95 1014.28 1014.52 1014.69 1014.77 1014.80 1014.79 1014.77 1014.76 1014.79 1014.87 1015.00 1015.20 1015.44 1015.71 1016.00 1016.29 1016.58 1016.84 1017.08 1017.30 1017.49 1017.68 1017.85 1018.02 1018.18 1018.34 1018.49 1018.64 1018.77 1018.89 1019.00 1019.09 1019.18 1019.27 1019.37 1019.48 1019.61 1019.76 1019.93 1020.12 1020.32 1020.53
1014.06 1014.39 1014.65 1014.83 1014.93 1014.99 1015.01 1015.02 1015.04 1015.10 1015.20 1015.36 1015.57 1015.81 1016.08 1016.35 1016.62 1016.87 1017.10 1017.30 1017.48 1017.64 1017.79 1017.94 1018.09 1018.25 1018.41 1018.58 1018.74 1018.88 1019.01 1019.13 1019.22 1019.29 1019.35 1019.40 1019.45 1019.52 1019.59 1019.68 1019.79 1019.92 1020.05
Thickness
5765 5764 5762 5761 5763 5762 5761 5760 5760 5759 5759 5759 5759 5759 5758 5758 5758 5756 5752 5747 5745 5743 5741 5739 5737 5736 5734 5733 5732 5731 5730 5729 5728 5727 5725 5724 5723 5722 5721 5720 5719 5718 5716
5764 5763 5762 5761 5762 5761 5761 5759 5760 5758 5759 5758 5758 5757 5757 5757 5756 5755 5753 5749 5745 5743 5741 5739 5738 5736 5735 5734 5732 5731 5730 5729 5728 5727 5726 5724 5723 5722 5721 5720 5719 5717 5715
5763 5763 5764 5762 5762 5761 5759 5759 5758 5758 5758 5757 5757 5757 5757 5756 5755 5754 5753 5751 5748 5744 5742 5740 5738 5737 5736 5734 5733 5732 5731 5730 5729 5727 5726 5725 5723 5722 5721 5719 5718 5717 5715
5763 5762 5763 5763 5761 5761 5761 5760 5759 5758 5756 5756 5756 5756 5757 5755 5754 5753 5753 5751 5749 5748 5744 5740 5738 5737 5736 5735 5734 5733 5732 5730 5729 5727 5726 5725 5724 5722 5721 5719 5718 5716 5715
5764 5763 5764 5762 5761 5761 5762 5761 5760 5757 5755 5755 5756 5755 5756 5755 5754 5754 5753 5751 5749 5747 5746 5741 5738 5737 5736 5735 5734 5733 5732 5731 5729 5728 5727 5726 5724 5723 5721 5719 5718 5716 5714
5764 5764 5764 5762 5762 5762 5760 5759 5756 5756 5755 5755 5757 5756 5756 5756 5755 5754 5752 5752 5749 5747 5746 5744 5740 5738 5735 5734 5733 5732 5732 5730 5729 5728 5727 5726 5725 5723 5721 5719 5718 5716 5714
5765 5763 5764 5762 5761 5760 5758 5758 5757 5756 5755 5756 5753 5752 5754 5756 5754 5752 5752 5751 5750 5747 5745 5743 5741 5739 5737 5733 5732 5731 5730 5729 5729 5728 5727 5726 5724 5723 5721 5719 5717 5715 5714
5765 5765 5762 5762 5761 5759 5757 5756 5755 5754 5755 5756 5752 5748 5746 5747 5749 5752 5750 5749 5748 5747 5745 5742 5739 5737 5735 5734 5732 5730 5729 5728 5727 5726 5725 5724 5723 5722 5720 5718 5716 5715 5713
5764 5762 5762 5761 5760 5760 5758 5755 5755 5753 5752 5754 5755 5751 5745 5741 5743 5747 5747 5747 5745 5744 5742 5740 5737 5735 5733 5732 5730 5728 5727 5726 5725 5724 5724 5722 5721 5720 5718 5717 5715 5714 5712
5764 5762 5761 5760 5759 5759 5757 5756 5757 5755 5752 5752 5754 5753 5752 5750 5742 5738 5742 5743 5742 5739 5738 5737 5735 5732 5730 5729 5727 5725 5724 5723 5721 5721 5721 5719 5718 5717 5715 5714 5712 5711 5709
5763 5761 5760 5759 5758 5758 5757 5755 5754 5754 5754 5752 5752 5751 5749 5747 5745 5739 5733 5734 5736 5735 5734 5733 5731 5729 5727 5725 5723 5721 5719 5718 5717 5716 5715 5714 5713 5712 5711 5710 5709 5707 5706
5763 5761 5760 5758 5757 5756 5755 5753 5752 5753 5752 5750 5750 5749 5747 5744 5742 5739 5735 5731 5729 5729 5730 5729 5727 5725 5723 5721 5718 5715 5713 5712 5710 5710 5709 5708 5707 5706 5705 5704 5703 5702 5701
5763 5760 5759 5756 5756 5754 5753 5752 5751 5750 5749 5747 5746 5747 5746 5744 5743 5740 5736 5731 5727 5726 5724 5723 5722 5720 5718 5715 5712 5709 5706 5705 5703 5702 5701 5700 5699 5698 5697 5696 5696 5695 5694
5763 5760 5757 5755 5754 5753 5753 5751 5751 5749 5748 5746 5745 5743 5742 5742 5742 5739 5735 5730 5723 5721 5719 5716 5716 5714 5711 5708 5704 5702 5700 5697 5695 5694 5693 5692 5691 5690 5689 5688 5687 5686 5685
5763 5759 5757 5754 5753 5751 5750 5748 5747 5746 5745 5744 5743 5741 5740 5739 5738 5738 5735 5731 5724 5716 5713 5710 5708 5706 5704 5700 5697 5695 5692 5689 5687 5686 5685 5683 5682 5681 5680 5678 5677 5676 5675
5760 5758 5756 5753 5751 5749 5748 5746 5745 5743 5742 5740 5738 5737 5735 5736 5734 5733 5732 5729 5725 5719 5710 5706 5702 5699 5696 5694 5689 5687 5684 5681 5679 5677 5676 5674 5672 5671 5669 5669 5668 5666 5665
5758 5756 5753 5751 5749 5747 5745 5744 5743 5741 5738 5736 5735 5733 5730 5729 5729 5729 5726 5723 5720 5715 5706 5699 5696 5692 5688 5685 5682 5680 5678 5675 5671 5668 5666 5664 5662 5661 5658 5657 5657 5655 5654
5756 5754 5751 5749 5747 5745 5742 5740 5739 5737 5734 5732 5730 5728 5726 5725 5722 5721 5719 5716 5713 5709 5703 5693 5688 5684 5680 5677 5675 5673 5671 5669 5665 5659 5657 5654 5652 5650 5648 5647 5645 5644 5643
5754 5751 5748 5746 5743 5741 5739 5736 5734 5732 5729 5726 5724 5722 5720 5718 5715 5714 5711 5709 5706 5702 5697 5691 5684 5679 5675 5672 5669 5666 5664 5661 5659 5653 5649 5645 5642 5641 5638 5636 5634 5633 5631
5751 5748 5745 5742 5740 5738 5735 5732 5730 5727 5724 5721 5719 5716 5714 5712 5709 5707 5704 5701 5698 5694 5690 5686 5680 5675 5671 5667 5664 5660 5656 5654 5652 5648 5642 5638 5635 5632 5630 5627 5624 5622 5621
5748 5744 5741 5738 5736 5733 5730 5727 5724 5721 5718 5715 5712 5709 5706 5702 5699 5698 5698 5694 5691 5688 5684 5680 5676 5671 5666 5661 5658 5655 5651 5647 5643 5641 5638 5634 5630 5627 5623 5618 5615 5612 5610
5743 5740 5737 5733 5730 5727 5720 5717 5717 5715 5712 5710 5706 5703 5700 5696 5692 5688 5685 5683 5681 5680 5677 5674 5670 5664 5658 5656 5651 5649 5645 5640 5636 5634 5632 5629 5626 5623 5618 5612 5606 5602 5599
5738 5735 5732 5728 5723 5717 5712 5710 5708 5708 5706 5703 5700 5698 5696 5691 5687 5684 5679 5675 5672 5669 5667 5666 5662 5657 5652 5648 5645 5641 5637 5634 5630 5627 5625 5622 5619 5615 5610 5602 5597 5593 5590
5733 5729 5725 5722 5718 5711 5706 5703 5701 5701 5699 5695 5693 5690 5687 5683 5680 5676 5674 5670 5667 5663 5660 5658 5653 5649 5645 5640 5637 5635 5631 5627 5624 5621 5617 5614 5611 5607 5603 5595 5588 5584 5581
5729 5724 5720 5716 5712 5705 5700 5698 5696 5696 5692 5689 5686 5682 5679 5675 5668 5667 5667 5664 5659 5655 5649 5646 5642 5638 5634 5631 5629 5628 5625 5622 5618 5614 5609 5606 5603 5599 5595 5589 5582 5577 5573
5724 5720 5714 5710 5705 5700 5694 5691 5689 5692 5687 5683 5678 5674 5668 5665 5660 5658 5659 5656 5652 5648 5644 5640 5634 5630 5628 5624 5620 5619 5618 5615 5611 5606 5601 5597 5595 5591 5587 5584 5578 5572 5567